DateTimeUTC,F1_A11,F1_S11,BsB_S11,BsG_S11,BsR_S11,BbsB_S11,BbsG_S11,BbsR_S11,BaB_A11,BaG_A11,BaR_A11,Tu_S11,T_S11,Uu_S11,U_S11,P_S11,T1_A11
2021-08-23T21:00:00Z,00000200,20000000,,,,,,,-000.24,0000.04,0000.01,19.3,26.1,08.3,05.5,0678.0,31.0
2021-08-23T21:01:00Z,00000200,20000000,,,,,,,0000.18,0000.05,-000.14,19.3,26.1,08.4,05.5,0678.0,31.0
2021-08-23T21:02:00Z,00000200,20000000,,,,,,,-000.08,-000.29,-000.03,19.3,26.2,08.4,05.5,0678.0,31.0
2021-08-23T21:03:00Z,00000200,60000000,,,,,,,-000.00,0000.25,0000.35,19.3,26.2,08.4,05.5,0678.0,31.0
2021-08-23T21:04:00Z,00000200,40000000,0000.70,0000.35,0000.47,-000.10,0000.05,-000.09,0000.39,0000.38,-000.31,19.4,26.0,08.5,05.7,0678.9,31.0
2021-08-23T21:05:00Z,00000200,00000000,0001.72,0000.77,0000.43,0000.09,0000.10,-000.10,0000.36,0000.19,0000.39,19.4,26.0,08.6,05.7,0679.0,31.0
2021-08-23T21:06:00Z,00000200,00000000,0001.78,0000.55,0000.52,0000.12,0000.32,-000.12,0000.23,0000.32,0000.26,19.4,25.9,08.6,05.8,0679.0,31.0
2021-08-23T21:07:00Z,00000200,00000000,0000.15,0000.42,0000.81,0000.03,-000.11,0000.05,0000.16,0000.07,-000.12,19.4,25.9,08.6,05.8,0679.0,31.0
2021-08-23T21:08:00Z,00000200,00000000,0001.56,0001.11,0000.90,-000.13,0000.26,-000.19,0000.28,0000.33,0000.52,19.4,25.9,08.6,05.8,0679.0,31.0
2021-08-23T21:09:00Z,00000200,00000000,0001.73,0000.99,0000.48,0000.13,-000.10,-000.34,0000.46,0000.54,0000.41,19.4,25.9,08.6,05.8,0679.0,31.0
2021-08-23T21:10:00Z,00000200,00000000,0001.55,0001.16,0000.76,-000.34,-000.08,0000.36,0000.26,0000.03,0000.13,19.4,25.9,08.6,05.8,0679.0,31.0
2021-08-23T21:11:00Z,00000200,00000000,0001.86,0001.11,0000.98,-000.61,0000.44,0000.14,0000.16,0000.51,0000.33,19.4,25.9,08.6,05.8,0679.0,31.0
2021-08-23T21:12:00Z,00000200,00000000,0002.00,0000.87,0000.41,0000.54,-000.11,-000.31,0000.32,0000.11,0000.23,19.4,25.9,08.6,05.8,0679.0,31.0
2021-08-23T21:13:00Z,00000200,00000000,0001.86,0001.11,0000.54,0000.13,0000.14,-000.21,0000.17,-000.11,-000.02,19.4,25.9,08.6,05.8,0679.0,31.0
2021-08-23T21:14:00Z,00000200,00000000,0001.38,0000.81,0000.37,0000.22,-000.01,-000.29,0000.21,-000.09,-000.03,19.4,25.9,08.5,05.7,0679.0,31.0
2021-08-23T21:15:00Z,00000200,00000000,0000.42,0000.35,0000.56,-000.50,-000.05,-000.11,0000.13,0000.20,0000.29,19.4,25.9,08.4,05.7,0679.0,31.0
2021-08-23T21:16:00Z,00000200,00000000,0001.09,0000.59,0000.31,-000.44,-000.11,-000.24,0000.30,0000.61,0000.32,19.4,25.9,08.4,05.7,0679.1,31.0
2021-08-23T21:17:00Z,00000200,00000000,0000.68,0000.72,0000.69,-000.28,-000.10,-000.00,-000.13,0000.03,-000.51,19.4,25.9,08.4,05.7,0679.1,31.0
2021-08-23T21:18:00Z,00000200,00000000,0000.54,0000.42,0000.29,-000.36,-000.34,-000.32,0000.31,-000.04,0000.26,19.4,25.8,08.3,05.6,0679.1,31.0
2021-08-23T21:19:00Z,00000200,00000000,0000.94,0000.69,0000.32,-000.39,-000.14,-000.41,0000.02,0000.45,0000.25,19.4,25.8,08.5,05.8,0679.1,31.1
2021-08-23T21:20:00Z,00000200,00000000,0000.66,0000.67,0000.38,-000.01,0000.18,0000.16,0000.39,0000.36,0000.48,19.4,25.9,08.5,05.7,0679.1,31.0
2021-08-23T21:21:00Z,00000200,00000000,0000.72,0000.70,0000.77,-000.32,-000.12,-000.01,0000.55,0000.08,0000.27,19.4,25.8,08.5,05.7,0679.1,31.0
2021-08-23T21:22:00Z,00000200,00000000,0001.74,0000.70,0000.17,0000.46,0000.14,-000.34,-000.27,0000.00,0000.04,19.4,25.8,08.4,05.7,0679.1,31.0
2021-08-23T21:23:00Z,00000200,00000000,0001.03,0000.46,0000.40,0000.05,0000.37,0000.06,0000.14,0000.37,-000.14,19.4,25.8,08.5,05.7,0679.0,31.0
2021-08-23T21:24:00Z,00000200,00000000,0000.50,0000.50,0000.41,-000.14,0000.10,-000.40,0000.53,-000.03,0000.21,19.4,25.8,08.4,05.7,0679.1,31.0
2021-08-23T21:25:00Z,00000200,00000000,0001.67,0000.81,0000.67,-000.29,0000.05,0000.05,0000.08,0000.24,-000.05,19.4,25.8,08.4,05.7,0679.1,31.0
2021-08-23T21:26:00Z,00000200,00000000,0001.94,0000.71,0000.47,0000.11,0000.01,-000.07,0000.27,0000.65,0000.25,19.4,25.8,08.4,05.7,0679.1,31.0
2021-08-23T21:27:00Z,00000200,00000000,0000.45,0000.63,0000.03,-000.09,-000.34,-000.02,0000.21,-000.15,0000.33,19.4,25.8,08.3,05.6,0679.1,31.0
2021-08-23T21:28:00Z,00000200,00000000,0001.00,0000.72,0000.45,0000.10,0000.00,0000.25,-000.11,-000.53,-000.24,19.3,25.8,08.3,05.6,0679.1,31.0
2021-08-23T21:29:00Z,00000200,00000000,0000.94,0000.36,0000.32,-000.18,-000.08,0000.15,-000.27,0000.54,0000.02,19.3,25.8,08.1,05.5,0679.1,31.0
2021-08-23T21:30:00Z,00000200,00000000,0001.33,0000.78,0000.68,0000.22,0000.21,-000.38,0000.23,-000.12,0000.27,19.4,25.8,08.0,05.4,0679.1,31.0
2021-08-23T21:31:00Z,00000200,00000000,0001.40,0000.78,0000.44,-000.53,-000.07,-000.20,0000.12,0000.08,0000.29,19.3,25.8,08.0,05.4,0679.1,31.0
2021-08-23T21:32:00Z,00000200,00000000,0001.00,0000.82,0000.30,0000.31,0000.09,-000.48,0000.63,0000.13,-000.21,19.3,25.8,07.9,05.4,0679.1,31.0
2021-08-23T21:33:00Z,00000200,00000000,0000.49,0000.26,0000.47,0000.17,-000.07,-000.08,-000.22,0000.34,-000.01,19.3,25.8,08.0,05.4,0679.1,31.0
2021-08-23T21:34:00Z,00000200,00000000,0001.08,0000.54,0000.27,-000.13,-000.14,-000.11,-000.14,0000.01,0000.15,19.3,25.8,07.9,05.4,0679.2,31.0
2021-08-23T21:35:00Z,00000200,00000000,0000.23,0000.47,0000.45,-000.07,-000.00,-000.37,0000.47,-000.05,0000.05,19.3,25.8,08.0,05.4,0679.2,31.0
2021-08-23T21:36:00Z,00000200,00000000,0000.33,0000.69,0000.60,-000.15,-000.02,0000.15,0000.23,0000.46,0000.45,19.3,25.8,08.0,05.4,0679.2,31.0
2021-08-23T21:37:00Z,00000200,00000000,0000.72,0000.45,-000.01,0000.38,-000.06,-000.16,0000.24,0000.19,-000.22,19.3,25.8,07.9,05.4,0679.2,31.0
2021-08-23T21:38:00Z,00000200,00000000,0001.13,0000.47,0000.47,0000.75,0000.15,-000.01,-000.15,0000.14,0000.16,19.3,25.8,08.0,05.4,0679.2,31.0
2021-08-23T21:39:00Z,00000200,00000000,0001.79,0000.38,0000.46,-000.46,0000.24,0000.22,0000.33,-000.25,-000.01,19.3,25.7,07.9,05.3,0679.2,31.0
2021-08-23T21:40:00Z,00000200,00000000,0000.48,0000.59,0000.32,-000.00,-000.09,0000.01,-000.01,0000.16,0000.32,19.3,25.7,07.9,05.3,0679.3,31.0
2021-08-23T21:41:00Z,00000200,00000000,0001.09,0000.90,0000.50,-000.25,-000.03,0000.12,0000.00,0000.19,-000.16,19.3,25.7,07.9,05.3,0679.3,31.0
2021-08-23T21:42:00Z,00000200,00000000,0000.95,0000.97,0000.66,-000.54,-000.05,-000.29,0000.29,-000.05,-000.17,19.3,25.7,07.9,05.3,0679.3,31.0
2021-08-23T21:43:00Z,00000200,00000000,0000.78,0000.82,0000.53,0000.22,0000.11,-000.27,0000.28,0000.20,0000.23,19.3,25.7,07.8,05.3,0679.3,31.0
2021-08-23T21:44:00Z,00000200,00000000,0000.73,0000.58,0000.57,-000.31,-000.14,-000.06,0000.19,0000.27,0000.36,19.3,25.7,07.8,05.2,0679.3,31.0
2021-08-23T21:45:00Z,00000200,00000000,0000.51,0000.70,0000.48,0000.23,0000.19,-000.06,-000.14,0000.42,0000.07,19.3,25.7,07.8,05.3,0679.3,31.0
2021-08-23T21:46:00Z,00000200,00000000,0000.61,0000.67,0000.63,-000.22,-000.01,0000.10,0000.56,0000.07,0000.23,19.3,25.7,07.8,05.2,0679.3,31.0
2021-08-23T21:47:00Z,00000200,00000000,0000.56,0000.55,0000.54,0000.24,-000.41,-000.09,0000.13,0000.12,0000.16,19.3,25.7,07.8,05.2,0679.3,31.0
2021-08-23T21:48:00Z,00000200,00000000,0001.80,0000.67,0000.39,0000.08,0000.08,-000.09,0000.21,0000.22,0000.27,19.3,25.7,07.7,05.2,0679.3,31.0
2021-08-23T21:49:00Z,00000200,00000000,0001.04,0000.57,0000.42,0000.20,0000.06,-000.11,-000.12,0000.04,-000.07,19.3,25.7,07.6,05.2,0679.3,31.0
2021-08-23T21:50:00Z,00000200,00000000,0001.02,0000.43,0000.12,0000.26,0000.08,-000.00,0000.21,0000.29,-000.14,19.3,25.7,07.6,05.2,0679.3,31.0
2021-08-23T21:51:00Z,00000200,00000000,0001.12,0000.97,0000.42,-000.19,0000.17,-000.37,0000.27,-000.43,0000.08,19.2,25.7,07.6,05.2,0679.3,31.0
2021-08-23T21:52:00Z,00000200,00000000,0000.20,0000.82,0000.18,-000.32,-000.05,-000.39,-000.11,0000.51,0000.54,19.2,25.7,07.6,05.1,0679.4,31.0
2021-08-23T21:53:00Z,00000200,00000000,0001.24,0000.90,0000.36,0000.42,-000.02,-000.30,0000.55,0000.19,-000.22,19.2,25.7,07.6,05.1,0679.4,31.0
2021-08-23T21:54:00Z,00000200,00000000,0001.70,0000.74,0000.37,-000.02,0000.21,-000.22,-000.10,0000.06,0000.34,19.2,25.7,07.5,05.1,0679.4,31.0
2021-08-23T21:55:00Z,00000200,00000000,0001.43,0000.96,0000.78,0000.33,-000.07,0000.35,0000.54,0000.66,-000.00,19.2,25.7,07.6,05.2,0679.4,31.0
2021-08-23T21:56:00Z,00000200,00000000,0001.70,0000.81,0000.51,0000.07,-000.20,0000.10,0000.04,-000.18,0000.15,19.2,25.7,07.7,05.2,0679.4,31.0
2021-08-23T21:57:00Z,00000200,40000000,,,,,,,0000.71,0000.42,0000.42,19.2,25.7,07.1,04.8,0679.4,31.0
2021-08-23T21:58:00Z,00000200,60000000,,,,,,,-000.62,-000.27,-000.02,19.0,25.8,07.9,05.2,0678.4,31.0
2021-08-23T21:59:00Z,00000200,20000000,,,,,,,-000.18,-000.18,-000.19,19.0,25.9,07.7,05.1,0678.4,31.0
